Temp
76 88 89 85 70 70 66 68 77 72 73 79 78 77 76 77 74 66 79 78 82 80 78 74 71 71 70 70 70 70 70 71 71 71 71 71 71 71 72 72 71 72 74 75 75 75 75 76 74
86 86 86 82 66 63 69 76 70 76 79 78 77 76 75 74 80 77 76 77 81 80 79 75 69 70 70 70 70 70 70 70 70 70 70 70 70 70 70 71 71 72 72 74 74 74 74 73 75
82 85 78 73 68 64 68 73 75 77 77 76 75 77 77 76 79 80 80 79 80 79 79 73 69 70 69 69 69 69 69 69 69 69 69 69 69 69 69 69 70 70 71 72 74 73 73 73 73
83 82 80 66 65 72 72 76 76 75 75 76 77 73 79 81 79 81 80 80 79 78 77 69 69 69 69 69 69 69 69 69 68 68 68 68 68 68 68 68 68 68 69 71 73 73 72 72 72
82 79 68 65 68 74 77 78 78 75 76 76 75 73 74 78 80 80 79 79 78 77 76 72 69 69 69 68 68 68 68 68 67 67 67 67 66 66 66 66 67 67 68 69 70 71 72 71 71
73 76 65 64 70 73 76 78 77 76 78 77 72 74 76 79 77 79 79 78 79 76 74 73 66 67 68 68 67 67 67 66 66 65 65 65 64 64 65 64 65 65 66 67 68 69 70 71 70
69 70 66 68 68 71 73 75 74 76 76 75 78 71 78 75 79 78 78 78 77 76 74 73 72 68 65 66 65 65 65 64 64 63 63 62 62 62 62 62 63 64 65 66 66 67 68 68 70
73 71 66 69 68 68 72 72 75 73 75 77 78 72 73 77 76 76 76 75 75 73 73 73 73 72 71 69 63 63 63 62 61 60 60 59 61 63 64 62 64 62 63 64 65 65 66 67 68
75 65 63 67 66 69 71 70 75 76 73 74 76 77 75 75 74 72 70 70 71 71 72 72 72 72 71 71 66 60 60 60 60 62 60 62 68 67 66 63 61 60 61 62 63 64 65 65 64
69 65 68 72 72 70 71 69 73 70 73 73 75 80 75 72 71 69 67 67 67 68 69 71 71 71 71 72 69 69 69 69 68 67 66 66 66 66 63 60 59 60 60 61 63 63 63 62 68
69 64 70 70 70 69 68 68 73 68 67 76 76 79 79 71 71 69 70 70 69 71 70 70 71 71 70 70 70 69 69 68 68 66 65 64 65 65 65 65 65 65 62 65 67 67 69 69 71
61 69 69 67 66 64 65 70 67 70 71 79 77 78 76 71 71 70 70 71 71 70 70 70 70 69 69 70 68 70 68 67 66 65 64 62 62 62 63 63 64 63 64 63 65 66 64 65 70
61 66 67 68 65 64 65 63 66 69 76 79 78 72 70 72 73 73 73 72 72 69 70 70 69 69 68 67 68 67 67 66 65 65 64 62 61 61 62 62 63 63 64 64 65 66 65 65 68
64 64 65 68 65 63 58 63 64 72 74 73 71 72 71 71 72 72 71 70 69 69 69 69 68 68 67 66 66 66 65 64 64 64 63 62 61 61 61 61 62 63 64 64 64 64 65 65 67
63 58 66 68 65 62 59 58 61 73 74 71 73 72 72 71 72 72 71 69 69 69 69 67 66 65 65 65 65 64 63 63 62 62 62 61 61 61 60 59 60 62 63 63 64 64 65 66 67
58 58 57 60 60 60 58 60 73 71 71 73 75 77 74 73 72 73 72 70 71 69 66 65 65 63 63 63 63 64 63 63 62 62 62 61 61 61 61 58 59 63 62 62 63 64 63 64 64
57 55 56 60 61 59 58 60 71 71 69 70 74 76 76 76 73 73 71 70 69 69 66 63 62 61 61 61 61 61 61 61 62 62 62 61 60 60 59 60 60 60 59 59 59 63 62 60 61
55 53 57 57 60 59 59 60 69 74 73 72 73 73 72 71 71 72 70 70 69 69 66 63 62 61 60 59 59 60 60 60 62 61 61 60 60 60 60 61 60 58 57 56 59 60 61 60 54
58 56 56 61 60 54 59 61 66 73 74 73 71 68 67 65 68 67 67 68 67 66 64 63 60 60 60 59 58 58 58 59 59 60 59 60 59 60 60 59 57 56 53 55 58 60 56 53 55
55 53 54 60 57 55 60 59 66 72 71 69 68 68 65 61 62 62 64 64 65 64 63 62 61 60 60 60 58 59 58 59 59 59 59 59 60 58 58 57 55 54 53 55 58 59 53 52 56
53 53 55 53 56 58 55 58 66 67 66 67 66 66 66 64 61 61 61 63 64 63 62 62 61 60 60 58 58 57 57 56 57 58 59 59 59 58 55 57 54 52 54 55 57 59 56 52 54
51 56 55 51 50 49 56 50 62 68 67 64 66 66 65 65 64 63 62 62 63 62 63 62 60 59 58 58 57 56 56 55 57 57 57 58 59 58 57 57 57 55 55 54 55 59 59 55 51
51 53 52 51 49 48 52 48 60 65 66 68 67 66 65 64 64 62 62 62 63 60 60 60 58 58 57 57 57 57 56 57 57 57 56 57 58 58 57 57 55 56 54 53 55 57 60 57 55
52 50 50 49 47 37 48 48 55 62 59 63 65 65 63 63 63 63 63 61 60 59 58 58 57 57 56 56 56 56 55 55 55 56 56 57 57 56 57 57 56 52 50 51 52 57 58 58 56
48 47 32 33 31 37 44 42 55 62 60 60 64 65 64 62 61 61 58 57 58 56 57 56 57 55 55 55 55 55 55 55 55 56 55 55 56 55 55 55 52 52 52 52 53 54 54 54 53
45 49 40 33 35 42 42 40 54 59 61 62 63 63 64 61 61 60 59 59 58 56 56 56 56 56 55 55 55 55 55 56 57 56 56 54 55 55 55 55 53 56 54 53 54 54 54 57 54
43 39 47 36 30 38 49 54 60 59 58 60 60 61 61 61 60 59 61 60 59 57 56 56 56 56 55 55 55 54 55 55 55 55 55 54 54 55 54 55 55 56 54 52 53 55 54 55 54
44 48 40 41 32 32 43 47 53 51 53 57 58 59 60 61 60 61 61 60 60 59 57 57 56 55 55 55 55 55 55 54 55 54 54 54 55 55 55 55 55 55 52 52 53 54 54 53 53
41 41 42 45 42 37 36 46 57 54 56 56 57 58 60 60 61 61 62 61 60 58 56 56 55 54 53 53 53 53 53 53 54 53 55 55 55 55 54 54 55 54 51 52 52 56 55 53 52
42 46 47 40 33 39 36 44 58 57 56 57 57 57 59 61 62 63 62 60 58 56 55 55 54 52 53 53 52 51 53 53 53 54 55 55 54 55 54 54 54 53 54 52 54 55 54 54 52
MSLP
1012.34 1011.23 1010.75 1009.90 1008.91 1007.24 1005.61 1005.22 1005.39 1005.53 1005.78 1006.01 1006.63 1006.51 1006.56 1006.78 1006.84 1008.64 1010.00 1010.69 1010.64 1011.15 1012.18 1013.13 1013.62 1013.80 1014.05 1014.24 1014.37 1014.42 1014.42 1014.40 1014.38 1014.32 1014.23 1014.26 1014.26 1014.16 1014.08 1013.91 1013.71 1013.60 1013.44 1013.26 1013.19 1013.16 1013.10 1013.00 1013.19
1011.61 1011.12 1010.38 1008.74 1007.82 1005.84 1004.29 1004.60 1005.30 1005.53 1005.89 1006.91 1007.15 1007.18 1007.14 1006.75 1007.65 1008.98 1010.07 1011.08 1011.11 1011.63 1012.34 1013.05 1013.80 1014.09 1014.25 1014.39 1014.51 1014.56 1014.64 1014.63 1014.57 1014.51 1014.55 1014.42 1014.43 1014.43 1014.30 1014.16 1014.01 1013.82 1013.60 1013.43 1013.20 1013.21 1013.18 1013.09 1013.01
1011.94 1011.24 1009.46 1008.08 1006.59 1005.26 1004.34 1005.13 1005.27 1005.89 1006.72 1007.04 1007.10 1007.54 1007.31 1007.13 1008.31 1008.85 1010.07 1010.96 1011.30 1011.87 1012.40 1013.37 1013.78 1013.96 1014.21 1014.44 1014.61 1014.68 1014.68 1014.74 1014.73 1014.76 1014.77 1014.72 1014.65 1014.58 1014.55 1014.43 1014.22 1014.08 1013.82 1013.55 1013.31 1013.25 1013.29 1013.21 1013.10
1011.13 1010.54 1009.58 1007.96 1005.88 1005.25 1005.16 1005.23 1005.92 1006.26 1007.01 1007.42 1007.35 1007.28 1007.68 1008.33 1008.67 1009.36 1010.36 1010.95 1011.46 1012.05 1012.68 1013.88 1014.03 1014.12 1014.36 1014.60 1014.73 1014.81 1014.81 1014.84 1014.86 1014.84 1014.88 1014.93 1014.90 1014.80 1014.73 1014.64 1014.51 1014.33 1014.07 1013.74 1013.45 1013.32 1013.35 1013.27 1013.13
1011.15 1009.66 1008.21 1006.96 1005.72 1005.31 1005.50 1005.75 1006.09 1006.27 1006.47 1006.96 1007.70 1007.20 1007.76 1008.68 1009.56 1010.06 1010.69 1011.16 1011.44 1012.18 1012.74 1013.63 1014.14 1014.40 1014.60 1014.85 1014.95 1014.97 1015.03 1015.11 1015.15 1015.16 1015.09 1015.07 1015.09 1015.04 1014.90 1014.81 1014.66 1014.48 1014.23 1013.97 1013.74 1013.61 1013.43 1013.38 1013.24
1010.21 1009.26 1007.47 1005.98 1005.00 1005.46 1005.81 1006.04 1006.39 1006.48 1006.49 1006.97 1007.72 1007.46 1007.72 1008.95 1009.64 1010.15 1010.75 1011.19 1011.61 1012.25 1012.88 1013.49 1014.24 1014.61 1014.82 1014.98 1015.19 1015.31 1015.38 1015.50 1015.55 1015.52 1015.47 1015.32 1015.23 1015.18 1015.06 1014.89 1014.71 1014.54 1014.31 1014.10 1013.88 1013.76 1013.64 1013.38 1013.33
1009.99 1008.71 1006.96 1006.02 1005.64 1005.55 1005.97 1006.88 1006.70 1006.44 1006.55 1006.89 1007.38 1007.51 1007.68 1009.07 1009.67 1010.42 1010.88 1011.31 1011.86 1012.40 1013.00 1013.39 1013.75 1014.40 1014.94 1015.11 1015.38 1015.53 1015.64 1015.78 1015.87 1015.84 1015.73 1015.60 1015.44 1015.28 1015.18 1015.03 1014.81 1014.61 1014.41 1014.13 1013.96 1013.75 1013.63 1013.54 1013.27
1010.21 1009.02 1007.15 1006.39 1005.86 1006.02 1007.00 1007.36 1007.48 1007.35 1006.81 1007.63 1007.75 1007.25 1007.63 1008.75 1010.10 1010.78 1011.11 1011.57 1012.04 1012.63 1012.97 1013.32 1013.75 1014.20 1014.51 1015.08 1015.59 1015.74 1015.79 1015.88 1015.96 1015.90 1015.83 1015.69 1015.31 1014.94 1014.77 1014.79 1014.57 1014.76 1014.47 1014.24 1013.91 1013.76 1013.52 1013.42 1013.29
1010.79 1009.07 1007.12 1006.55 1006.74 1006.66 1007.75 1007.68 1007.78 1008.05 1007.79 1007.64 1007.71 1007.69 1008.63 1009.62 1010.48 1010.92 1011.35 1011.71 1012.16 1012.65 1013.00 1013.34 1013.71 1014.10 1014.45 1014.77 1015.32 1015.83 1015.96 1015.91 1015.84 1015.73 1015.73 1015.48 1014.94 1014.79 1014.57 1014.65 1014.72 1014.68 1014.49 1014.18 1013.91 1013.62 1013.44 1013.34 1013.25
1010.34 1008.75 1007.37 1007.61 1007.72 1007.84 1008.19 1008.36 1007.94 1008.09 1007.34 1007.18 1007.35 1007.59 1008.83 1009.99 1010.42 1010.66 1011.05 1011.36 1011.85 1012.44 1012.88 1013.25 1013.65 1013.98 1014.41 1014.63 1014.95 1015.13 1015.28 1015.27 1015.36 1015.49 1015.49 1015.32 1015.11 1014.87 1014.94 1014.62 1014.52 1014.32 1014.20 1013.95 1013.56 1013.29 1013.20 1013.12 1012.67
1009.86 1008.95 1008.50 1008.57 1009.02 1009.22 1009.06 1008.86 1008.59 1008.07 1006.99 1006.43 1006.53 1006.76 1007.62 1009.32 1010.00 1010.35 1010.67 1011.01 1011.51 1012.02 1012.61 1013.16 1013.51 1013.85 1014.33 1014.49 1014.79 1014.98 1015.01 1015.16 1015.32 1015.42 1015.56 1015.40 1015.10 1014.80 1014.58 1014.27 1013.98 1013.80 1013.73 1013.40 1012.90 1012.62 1012.31 1012.02 1011.87
1010.40 1009.35 1009.47 1009.61 1010.07 1010.04 1009.63 1009.18 1008.50 1007.91 1006.97 1006.55 1007.08 1007.48 1008.04 1008.73 1009.21 1009.88 1010.25 1010.66 1011.18 1011.80 1012.37 1013.04 1013.46 1013.83 1014.06 1014.29 1014.70 1014.62 1014.99 1015.19 1015.25 1015.46 1015.56 1015.58 1015.14 1014.84 1014.55 1014.24 1014.01 1013.78 1013.51 1013.32 1012.99 1012.53 1012.60 1012.44 1011.65
1010.59 1009.87 1009.94 1010.07 1010.33 1010.45 1010.26 1009.49 1008.77 1007.06 1006.79 1006.69 1006.87 1007.70 1008.17 1008.41 1008.79 1009.38 1009.97 1010.54 1011.13 1011.75 1012.28 1012.83 1013.46 1013.74 1013.88 1014.39 1014.51 1014.81 1015.06 1015.30 1015.57 1015.46 1015.50 1015.54 1015.30 1015.00 1014.70 1014.41 1014.12 1013.82 1013.44 1013.06 1012.72 1012.41 1012.35 1012.20 1011.54
1010.46 1010.35 1010.04 1009.87 1010.22 1010.56 1010.40 1009.41 1008.94 1006.43 1006.55 1006.51 1006.81 1007.17 1007.66 1007.99 1008.33 1008.91 1009.59 1010.25 1010.97 1011.68 1012.16 1012.80 1013.33 1013.60 1013.89 1014.23 1014.63 1014.91 1015.34 1015.61 1015.60 1015.57 1015.53 1015.53 1015.34 1015.02 1014.74 1014.37 1013.96 1013.63 1013.27 1013.05 1012.79 1012.48 1012.23 1011.98 1011.50
1010.72 1010.30 1009.47 1009.28 1009.98 1010.35 1010.51 1008.86 1007.29 1006.34 1006.47 1006.43 1006.30 1006.65 1007.25 1007.69 1008.13 1008.37 1009.16 1010.09 1010.85 1011.51 1012.10 1012.83 1013.35 1013.76 1014.05 1014.38 1014.71 1015.11 1015.42 1015.62 1015.60 1015.52 1015.50 1015.51 1015.34 1015.01 1014.73 1014.55 1014.13 1013.59 1013.31 1013.09 1012.69 1012.35 1011.98 1011.70 1011.48
1010.55 1010.15 1009.23 1009.48 1010.04 1010.27 1010.22 1007.48 1005.99 1006.23 1006.16 1005.77 1005.69 1005.77 1006.34 1007.16 1007.80 1008.26 1008.83 1009.68 1010.46 1011.31 1012.26 1013.03 1013.54 1014.00 1014.29 1014.56 1014.89 1015.06 1015.29 1015.37 1015.27 1015.42 1015.48 1015.43 1015.21 1014.93 1014.67 1014.61 1014.18 1013.64 1013.41 1012.95 1012.63 1012.26 1011.96 1011.60 1011.54
1010.02 1009.00 1008.90 1008.96 1009.72 1009.83 1009.46 1006.88 1005.63 1005.72 1005.67 1005.33 1005.21 1005.36 1005.50 1005.91 1007.26 1008.12 1008.90 1009.64 1010.41 1011.15 1012.11 1012.98 1013.63 1014.09 1014.37 1014.68 1014.96 1015.28 1015.33 1015.16 1015.27 1015.30 1015.22 1015.34 1015.39 1015.35 1015.17 1014.69 1014.24 1014.21 1013.80 1013.42 1012.82 1012.15 1012.05 1011.90 1011.92
1008.67 1008.82 1008.65 1008.73 1009.29 1009.33 1008.43 1006.36 1005.59 1004.71 1004.43 1004.38 1004.47 1004.89 1005.50 1005.95 1007.04 1008.05 1009.04 1009.76 1010.47 1011.16 1012.16 1013.09 1013.67 1014.16 1014.52 1014.88 1015.08 1015.20 1015.26 1015.31 1015.25 1015.19 1015.29 1015.37 1015.19 1015.32 1014.99 1014.46 1014.43 1014.42 1014.09 1013.54 1012.90 1012.43 1012.25 1012.11 1012.85
1009.11 1008.80 1008.62 1008.47 1009.10 1009.20 1007.68 1006.16 1004.63 1004.17 1003.60 1003.78 1004.31 1005.15 1006.00 1006.86 1007.91 1008.82 1009.56 1010.18 1010.77 1011.40 1012.24 1012.98 1013.71 1014.21 1014.54 1014.78 1014.89 1014.90 1014.95 1015.15 1015.35 1015.44 1015.75 1015.45 1015.30 1014.90 1014.66 1014.52 1014.70 1014.64 1014.44 1013.75 1013.17 1012.64 1012.69 1013.10 1013.24
1009.86 1009.43 1008.76 1008.77 1009.42 1009.19 1007.39 1005.82 1003.64 1003.11 1003.03 1003.89 1004.70 1005.29 1006.35 1007.81 1008.58 1009.37 1009.90 1010.48 1010.92 1011.56 1012.33 1013.05 1013.56 1014.12 1014.40 1014.76 1015.09 1015.25 1015.36 1015.35 1015.60 1015.64 1015.37 1015.51 1015.20 1015.19 1015.01 1014.98 1014.85 1014.75 1014.46 1013.82 1013.15 1012.70 1012.86 1012.93 1013.37
1010.19 1009.82 1009.28 1009.65 1009.62 1008.81 1008.17 1005.15 1003.17 1003.20 1003.51 1003.95 1005.06 1005.85 1006.50 1007.58 1008.55 1009.32 1010.00 1010.50 1011.02 1011.78 1012.54 1013.19 1013.81 1014.24 1014.61 1014.92 1015.30 1015.48 1015.64 1015.79 1015.74 1015.48 1015.50 1015.67 1015.65 1015.70 1015.59 1015.09 1015.04 1014.80 1014.50 1013.93 1013.23 1012.77 1012.96 1013.33 1013.80
1010.42 1010.32 1010.31 1010.34 1010.04 1008.79 1008.28 1005.44 1003.22 1002.54 1002.85 1003.76 1004.70 1005.73 1006.62 1007.50 1008.53 1009.24 1010.06 1010.68 1011.30 1011.96 1012.66 1013.34 1013.96 1014.47 1014.87 1015.04 1015.23 1015.31 1015.19 1015.27 1015.59 1015.68 1015.78 1015.55 1015.54 1015.64 1015.65 1015.29 1015.10 1015.01 1014.59 1014.20 1013.54 1013.07 1013.01 1013.46 1013.79
1011.28 1011.31 1011.06 1010.94 1010.41 1009.88 1008.15 1007.12 1003.73 1002.95 1002.70 1003.16 1004.25 1005.45 1006.56 1007.76 1008.50 1009.18 1010.08 1010.92 1011.53 1012.49 1013.04 1013.68 1014.23 1014.61 1014.95 1015.08 1015.20 1015.42 1015.38 1015.53 1015.74 1015.73 1015.70 1015.44 1015.57 1015.65 1015.69 1015.35 1015.43 1015.18 1014.83 1014.49 1013.84 1013.32 1013.09 1013.56 1013.84
1012.34 1012.20 1011.90 1011.63 1011.09 1010.26 1008.39 1007.52 1004.42 1003.60 1004.10 1004.34 1005.05 1005.82 1006.86 1007.87 1008.79 1009.40 1010.33 1011.18 1011.93 1012.79 1013.29 1013.86 1014.42 1014.89 1015.27 1015.50 1015.54 1015.50 1015.41 1015.56 1015.79 1015.75 1015.36 1015.11 1015.40 1015.52 1015.52 1015.44 1015.29 1015.36 1015.08 1014.60 1014.08 1013.65 1013.61 1013.82 1014.24
1012.89 1012.33 1012.55 1012.35 1011.72 1010.04 1009.22 1008.35 1005.08 1004.87 1005.23 1005.48 1005.56 1006.06 1007.03 1008.14 1008.91 1009.69 1010.52 1011.34 1012.01 1012.72 1013.47 1013.96 1014.33 1014.69 1015.30 1015.60 1015.74 1015.72 1015.65 1015.72 1015.76 1015.53 1015.34 1015.21 1015.17 1015.35 1015.60 1015.58 1015.59 1015.49 1015.04 1014.73 1014.22 1013.94 1014.04 1014.16 1014.57
1012.62 1012.06 1011.55 1011.42 1011.09 1009.99 1009.77 1007.54 1005.51 1005.73 1005.89 1006.10 1006.46 1006.54 1007.18 1008.31 1009.02 1009.77 1010.58 1011.13 1011.92 1012.68 1013.22 1013.79 1014.12 1014.40 1014.90 1015.45 1015.74 1016.00 1015.93 1015.71 1015.70 1015.75 1015.70 1015.65 1015.50 1015.63 1015.64 1015.44 1015.46 1015.29 1015.04 1014.81 1014.48 1014.36 1014.39 1014.50 1014.84
1013.12 1012.75 1012.08 1011.61 1012.23 1010.50 1008.28 1006.79 1006.26 1006.16 1006.30 1006.51 1007.09 1007.09 1007.51 1008.35 1009.15 1009.87 1010.39 1010.92 1011.52 1012.25 1012.82 1013.40 1013.92 1014.33 1014.69 1015.12 1015.45 1015.85 1016.04 1015.85 1015.79 1016.09 1015.96 1016.00 1015.84 1015.77 1015.67 1015.47 1015.34 1015.25 1015.26 1015.00 1014.68 1014.78 1014.95 1015.08 1015.35
1013.23 1012.59 1012.27 1011.72 1011.12 1009.90 1007.96 1007.09 1005.84 1006.78 1007.09 1007.33 1007.68 1007.73 1007.90 1008.49 1009.04 1009.69 1010.34 1010.82 1011.32 1011.94 1012.52 1013.17 1013.73 1014.22 1014.59 1014.95 1015.30 1015.51 1015.82 1015.91 1015.98 1016.14 1015.87 1015.78 1015.87 1015.91 1015.76 1015.48 1015.44 1015.30 1015.38 1015.24 1015.01 1015.12 1015.24 1015.57 1015.91
1013.32 1012.51 1011.88 1011.23 1010.69 1009.72 1008.56 1007.16 1006.95 1007.23 1007.69 1007.93 1008.41 1008.43 1008.41 1008.74 1008.90 1009.41 1009.91 1010.52 1011.15 1011.91 1012.48 1012.95 1013.53 1014.08 1014.50 1014.84 1015.17 1015.47 1015.62 1015.86 1015.99 1015.97 1015.98 1015.84 1015.76 1015.98 1015.97 1015.70 1015.52 1015.51 1015.55 1015.44 1015.28 1015.38 1015.53 1015.85 1016.30
1013.13 1012.12 1011.35 1010.77 1010.94 1010.43 1009.93 1008.09 1007.72 1007.95 1008.41 1008.73 1008.98 1009.15 1009.21 1009.11 1009.16 1009.37 1009.70 1010.26 1010.91 1011.58 1012.23 1012.78 1013.23 1013.83 1014.33 1014.77 1015.04 1015.38 1015.66 1015.67 1015.85 1015.80 1015.89 1015.97 1015.81 1015.95 1016.09 1016.00 1015.63 1015.73 1015.61 1015.53 1015.37 1015.52 1015.88 1016.16 1016.66
Wind_Speed
13 8 5 5 7 6 10 4 9 5 5 2 2 5 6 9 8 6 5 5 10 12 14 11 9 9 8 8 7 7 7 7 7 7 8 8 9 10 10 10 10 10 10 9 8 9 7 7 10
8 6 5 4 7 9 5 2 6 8 2 0 2 6 8 10 5 7 8 6 11 11 11 11 10 9 8 7 7 7 6 6 7 7 8 8 9 9 10 10 9 9 10 11 9 9 9 7 7
8 6 5 5 7 9 4 1 4 2 0 4 3 2 6 2 3 3 8 11 12 10 10 11 10 9 8 7 6 6 6 6 6 7 7 8 8 9 10 11 10 11 11 11 11 9 10 9 8
4 5 5 7 11 10 6 1 2 3 3 4 5 8 4 4 2 4 11 13 12 11 9 11 9 9 8 7 6 6 5 5 6 6 7 8 8 9 10 10 11 11 12 11 10 9 9 10 10
5 4 8 8 12 8 6 7 5 7 4 4 5 4 3 4 5 7 11 11 12 11 9 10 8 8 8 6 6 5 5 4 5 6 7 7 8 9 10 10 11 11 12 11 10 10 11 10 11
6 4 7 10 8 2 5 5 6 8 8 4 5 11 4 7 7 8 11 11 10 10 9 10 8 7 7 6 5 4 4 4 5 6 7 8 8 9 9 9 10 10 11 11 11 11 11 13 11
9 6 11 10 10 8 3 2 8 7 7 8 2 6 2 6 5 8 10 10 9 9 8 8 9 8 6 6 5 4 3 4 4 5 6 7 8 7 9 9 9 10 11 11 11 12 12 11 13
6 4 6 6 6 5 3 2 3 6 6 5 1 5 3 8 9 8 9 10 9 8 8 7 6 6 6 7 5 4 3 2 3 4 5 8 9 6 7 9 6 12 12 12 12 12 12 13 13
4 7 8 9 5 0 2 3 4 4 9 6 7 8 6 8 10 10 9 10 9 8 8 7 6 5 4 4 6 4 3 1 4 4 1 8 6 8 8 8 9 12 12 12 12 13 13 13 13
8 8 7 6 6 6 3 6 8 5 10 12 12 12 8 8 10 12 12 12 12 11 10 8 7 5 4 3 4 4 2 4 4 5 7 6 8 8 7 9 8 10 10 12 12 11 12 11 8
5 9 9 4 5 7 7 9 8 8 10 13 12 5 10 10 11 12 12 12 12 11 9 9 7 6 5 4 3 3 2 2 3 5 6 7 7 6 6 5 5 6 6 7 6 6 6 7 6
7 9 9 5 3 4 7 9 10 15 18 15 6 9 4 10 11 12 12 11 10 10 10 9 8 6 6 4 4 3 3 3 4 5 6 6 5 6 7 5 7 6 5 7 7 5 4 9 10
9 10 7 8 7 8 11 16 17 23 20 16 15 7 10 9 9 10 10 10 9 9 9 9 8 7 6 5 3 2 3 3 5 5 5 5 6 6 7 7 7 7 6 6 6 6 3 8 9
4 7 12 9 8 6 7 12 7 8 1 3 4 10 11 12 11 9 10 10 10 10 9 9 8 7 6 5 3 1 1 3 4 5 5 7 6 6 6 7 6 6 6 6 7 7 5 7 6
4 9 11 9 4 4 4 13 15 14 10 9 9 8 7 8 8 11 10 10 11 10 9 9 8 7 6 5 3 1 0 3 4 4 5 5 6 7 6 6 7 6 6 7 7 7 8 6 4
4 2 4 5 3 3 1 8 3 1 6 8 6 8 8 7 8 9 9 10 11 10 11 9 7 8 6 5 3 2 1 2 3 3 3 4 5 5 6 4 5 6 7 6 7 6 6 5 3
6 5 7 3 3 2 6 9 2 5 7 13 15 13 12 10 9 5 9 10 11 12 11 10 9 9 7 6 3 1 1 3 1 2 2 4 5 6 6 5 5 9 7 7 8 5 5 5 4
6 6 4 6 5 5 10 23 19 17 15 16 12 11 8 6 7 7 9 11 11 12 11 10 8 9 7 5 3 2 2 1 1 2 3 4 3 6 5 5 7 8 7 6 7 7 5 4 7
3 5 9 4 4 4 11 19 19 17 17 15 7 3 3 4 6 8 9 10 11 11 11 11 10 8 6 4 3 3 2 1 1 2 3 5 3 2 4 5 6 6 7 8 9 6 5 3 6
8 9 11 5 1 3 11 19 24 16 9 3 2 4 6 8 9 10 11 10 11 12 11 10 9 8 4 3 1 1 1 0 2 1 2 2 3 5 5 6 5 7 6 7 7 6 4 2 2
10 11 9 6 4 11 11 13 10 3 3 4 4 3 5 9 11 11 11 11 11 11 10 9 8 7 5 4 2 2 1 1 2 1 1 4 6 6 6 6 4 6 6 6 8 5 7 2 3
10 3 7 5 4 4 2 6 13 2 5 6 8 7 7 9 10 11 11 11 10 10 9 8 7 6 5 4 3 3 1 1 1 1 2 3 4 6 6 8 8 8 4 6 7 7 5 4 6
2 2 4 2 4 5 6 5 5 3 5 5 7 8 7 8 10 11 11 10 10 9 8 7 6 6 5 4 2 2 1 1 1 1 1 2 3 5 6 7 6 8 5 6 8 6 4 5 5
9 5 4 2 1 4 3 4 4 5 5 6 4 7 7 8 9 10 10 9 9 8 7 6 6 5 4 3 3 3 3 3 3 1 1 1 2 2 4 7 6 6 5 6 6 3 4 6 5
5 6 1 1 1 4 2 4 10 9 6 6 2 6 6 8 9 10 11 10 10 9 8 6 6 6 5 4 3 3 3 3 3 3 1 1 0 2 4 6 6 6 6 6 6 4 4 4 4
12 3 4 4 4 3 2 6 1 6 5 2 1 3 6 6 7 9 10 10 10 9 9 8 7 6 6 5 4 4 4 3 3 3 0 2 3 2 3 4 4 7 6 6 5 3 3 5 4
6 7 3 5 2 2 6 6 4 9 11 9 5 3 3 5 6 7 9 9 9 10 10 9 8 6 6 6 4 4 4 4 3 2 0 2 4 3 3 4 5 5 7 5 5 4 5 6 5
4 1 4 1 4 5 4 6 5 11 12 11 10 7 5 2 6 7 8 8 8 8 9 9 8 7 6 6 5 4 5 4 3 3 3 1 3 4 4 5 5 4 5 5 5 4 6 7 5
5 4 4 2 2 3 2 3 8 14 11 12 9 9 8 3 5 8 8 8 8 7 8 9 8 8 7 6 6 5 5 5 4 4 4 3 1 3 5 4 4 4 4 4 2 4 7 8 8
3 6 9 4 5 1 2 2 9 10 8 9 10 7 8 6 2 6 8 8 9 9 9 9 8 8 8 7 6 6 6 5 5 4 4 3 3 2 4 4 5 1 3 4 4 6 6 8 8
Wind_Direction
278 260 274 248 245 230 266 249 254 250 236 61 337 277 329 334 310 326 127 120 130 140 128 143 130 124 111 96 80 70 61 53 45 40 36 27 18 11 3 359 352 341 337 349 339 318 305 276 231
300 282 235 265 253 237 262 202 225 238 86 344 283 254 257 278 58 105 154 147 144 138 142 135 131 119 108 99 90 80 66 55 48 43 32 31 23 10 2 355 348 338 327 322 344 347 328 314 263
268 265 247 227 243 250 328 118 297 119 35 245 270 249 317 336 100 75 83 151 147 142 134 118 135 127 118 110 102 90 77 65 59 48 37 29 22 13 3 355 352 346 337 319 313 340 347 334 315
231 196 232 250 241 253 267 6 8 195 187 213 271 269 153 34 95 64 138 153 153 143 143 130 134 131 126 121 110 95 82 71 59 50 37 24 16 9 2 352 343 340 337 330 311 311 328 339 331
223 259 245 242 259 259 277 280 267 257 271 212 212 253 276 128 111 133 145 158 157 149 138 143 140 136 131 120 111 106 90 71 53 38 28 19 9 1 354 348 340 333 328 326 324 301 298 316 325
215 273 241 247 254 212 270 275 251 240 257 174 239 260 268 99 169 153 154 165 158 151 150 137 135 138 137 131 118 93 76 54 38 25 16 8 357 347 343 339 331 324 319 316 313 311 308 295 311
262 240 256 287 284 282 257 333 232 262 251 228 226 272 82 164 161 154 162 160 160 149 158 155 159 147 126 124 112 83 68 48 28 17 4 350 334 331 329 327 316 320 316 309 304 300 298 296 289
275 272 263 235 279 283 85 254 329 276 274 71 196 244 251 114 139 151 161 161 167 160 168 170 162 170 162 150 114 96 94 56 17 347 344 329 299 265 292 296 334 320 313 307 299 292 288 289 285
267 249 256 254 254 9 110 270 125 330 279 209 202 267 79 126 149 159 168 177 180 179 182 175 174 174 174 171 126 162 183 233 269 264 224 303 319 319 319 336 320 308 303 299 295 286 283 286 282
234 249 274 1 329 305 321 286 304 270 255 251 246 239 156 168 180 183 188 191 193 192 188 184 182 181 177 191 184 227 243 282 311 322 334 324 321 320 297 276 259 276 276 286 274 270 271 270 262
193 253 10 293 314 315 293 284 259 269 268 262 275 270 185 194 206 210 208 206 200 196 188 190 184 179 190 196 209 230 241 285 308 327 340 322 320 317 317 314 309 319 285 291 296 274 255 293 248
259 239 284 308 345 296 282 316 266 252 258 292 275 306 242 206 216 218 218 212 198 193 189 178 185 178 190 207 207 253 273 340 315 344 321 322 317 321 317 315 317 307 308 303 285 282 291 276 262
243 269 288 268 274 273 285 269 275 275 274 269 268 236 247 234 227 223 224 215 201 196 187 177 177 186 188 204 216 240 294 313 340 307 321 323 318 317 318 320 311 309 303 293 283 281 284 283 261
16 294 280 285 282 276 274 281 305 266 359 264 261 249 242 235 227 220 210 207 199 196 182 170 177 186 184 199 196 217 325 330 308 323 324 312 312 311 313 315 313 303 302 313 303 299 277 266 249
290 290 279 250 280 269 331 271 233 262 249 272 245 229 235 230 224 215 202 203 194 190 172 170 166 174 173 168 165 156 270 294 324 306 306 319 317 315 316 324 311 312 311 294 271 272 273 245 247
240 238 266 121 182 141 226 274 318 108 253 263 248 239 221 231 233 209 188 186 182 170 166 159 154 156 150 148 147 180 69 300 283 310 321 332 316 322 312 316 299 330 317 317 298 275 276 269 237
209 257 219 197 188 264 223 294 306 178 244 267 279 281 273 241 192 201 168 169 167 162 162 154 152 149 146 134 156 105 253 268 305 295 304 358 349 339 325 305 325 337 321 315 297 274 278 284 234
207 228 200 259 120 230 268 273 274 279 283 280 282 283 279 266 241 160 162 158 161 157 154 150 150 150 148 144 144 186 223 237 277 328 360 296 357 338 310 320 356 333 322 317 316 303 296 277 89
280 261 261 244 117 291 272 285 289 283 272 277 276 183 144 147 122 142 141 147 151 151 150 157 154 159 156 166 171 214 240 205 220 355 340 336 354 2 350 0 341 343 325 309 311 314 81 61 116
245 257 267 274 175 252 288 288 286 285 274 237 177 163 143 144 149 143 148 149 159 152 155 156 157 163 151 139 194 344 307 308 355 335 276 328 352 4 351 344 341 326 318 316 317 328 113 243 40
228 245 266 279 314 239 285 259 271 173 214 183 198 137 144 159 155 153 155 163 154 156 156 161 164 153 134 143 152 149 144 233 223 243 348 20 356 354 356 335 352 335 327 318 314 348 126 107 75
240 250 248 265 273 288 292 295 298 259 260 177 172 182 151 153 154 157 163 161 161 152 149 158 157 144 136 175 205 212 273 202 65 22 14 14 352 351 346 344 1 340 333 332 325 330 131 128 111
71 137 175 208 240 309 202 254 254 212 293 49 160 157 145 157 164 162 167 162 151 140 153 161 159 147 159 185 202 184 197 126 192 176 338 31 13 7 356 350 347 344 350 332 333 325 130 129 140
138 123 110 108 276 245 214 256 264 353 28 73 108 151 140 152 162 159 154 152 148 155 160 167 169 155 170 202 166 199 196 186 222 154 153 89 51 359 1 346 356 346 323 328 324 5 66 133 123
209 182 31 258 175 248 125 208 267 352 29 349 28 151 150 155 165 163 161 170 167 165 171 179 186 163 186 216 195 203 212 192 226 221 155 310 47 42 19 346 350 333 335 340 333 44 115 127 122
195 231 203 233 199 103 123 233 204 352 318 299 230 62 138 164 166 173 177 181 172 174 182 186 190 178 181 206 209 214 210 213 238 241 356 326 319 5 356 335 334 338 356 345 345 68 74 134 124
171 213 38 97 76 274 212 237 137 49 53 60 68 83 151 166 169 181 182 183 179 181 189 193 191 190 188 199 199 205 217 227 252 277 26 330 313 344 330 328 336 4 352 354 344 90 91 85 85
266 178 140 204 200 225 182 264 226 74 71 71 57 48 50 175 172 182 190 191 191 187 185 192 194 196 191 196 204 208 212 223 242 267 235 173 310 313 320 333 339 358 360 359 5 88 99 98 94
160 193 221 230 243 250 214 180 116 114 90 76 63 51 46 60 187 198 198 194 195 189 186 193 191 193 194 197 200 210 207 216 238 254 264 255 287 315 316 333 323 6 350 345 341 122 106 103 95
317 233 198 195 192 259 359 106 156 130 90 53 49 35 21 17 345 214 204 191 191 193 191 201 193 191 196 199 199 210 221 208 222 243 260 291 313 336 323 318 311 337 359 343 106 122 124 122 116